Wind_Speed
32 34 36 37 38 39 40 41 41 41 41 41 41 42 43 44 45 46 46 47 48 50 52 53 53 52 49 47 47 47 47 48 48 48 46 44 41 39 39 40 42 44 47 49 51 53 54 55 56 56 55 55 52 44 38 36 37 39 40 41 41 42 43 43 40 38 43 51 55 56 60 65 66 65
33 35 36 38 39 40 40 41 41 41 41 41 42 43 44 45 45 46 46 46 48 51 53 53 53 51 48 47 46 46 46 46 46 45 43 41 38 38 39 40 42 45 47 49 51 53 55 55 56 56 56 55 51 44 40 39 39 39 38 37 37 38 40 43 43 40 38 43 52 56 57 61 66 66
34 35 36 38 39 39 40 40 41 41 41 42 43 43 44 45 46 46 46 46 48 50 53 53 52 49 47 46 46 46 45 45 44 43 41 39 37 38 39 41 43 46 49 50 51 53 54 55 55 55 56 54 48 42 39 39 38 35 32 30 30 31 34 38 42 43 40 38 44 53 56 58 63 66
34 36 37 38 38 39 39 40 41 42 42 43 43 44 45 46 46 46 46 47 49 51 52 52 50 47 45 45 45 45 44 44 43 41 39 38 37 38 40 42 45 47 49 51 52 53 53 53 54 55 55 52 46 40 39 39 36 31 30 29 28 28 30 33 37 42 43 40 38 45 54 57 59 64
35 37 38 38 38 38 39 41 41 42 42 43 43 45 46 46 46 46 46 47 50 51 52 51 48 45 44 44 44 44 44 43 41 39 37 37 38 39 41 43 46 48 50 51 52 52 52 52 52 54 54 50 45 41 39 38 35 32 32 33 31 30 30 31 34 37 42 44 41 40 47 55 58 61
37 38 38 38 38 39 40 41 42 42 43 43 44 45 47 48 47 46 46 47 49 50 51 48 44 42 43 43 43 44 43 42 40 37 37 37 38 40 42 44 47 49 50 51 51 52 51 51 52 53 52 48 44 41 39 37 35 35 35 36 35 34 33 34 34 35 37 42 45 43 42 49 57 60
38 39 39 39 39 40 41 41 42 42 43 44 45 46 48 48 47 44 44 46 47 48 47 43 41 41 42 43 44 44 43 41 39 37 37 38 39 41 43 46 48 49 50 51 51 51 50 51 52 52 50 46 43 40 39 37 35 35 37 38 38 37 36 36 36 37 37 38 43 47 45 44 51 59
39 39 39 39 39 41 41 41 41 42 43 44 45 46 46 44 42 41 42 44 45 44 41 39 39 41 43 44 44 43 41 39 37 37 37 38 40 42 45 47 48 49 50 50 51 50 50 50 51 50 47 45 42 40 38 37 36 36 37 38 39 38 36 35 35 35 37 38 40 45 48 46 47 55
40 39 39 39 40 41 41 41 41 42 43 44 44 42 41 40 40 41 42 43 42 40 38 38 40 41 43 43 43 41 38 36 36 37 38 39 41 43 45 47 48 49 49 50 50 50 50 50 50 49 45 42 41 39 37 36 37 38 39 39 39 37 35 33 34 34 35 37 38 41 47 50 48 50
39 39 39 39 40 40 40 41 41 42 43 43 42 41 41 41 41 41 42 42 41 39 38 39 40 41 42 43 41 39 36 35 36 36 37 40 42 44 46 48 48 49 49 49 50 50 50 50 50 47 43 40 39 38 37 36 37 39 41 41 39 37 36 34 34 35 36 37 38 39 44 50 51 50
38 38 39 39 39 39 40 40 41 42 43 42 40 41 41 41 42 42 43 42 39 38 38 39 40 40 41 41 39 36 35 36 37 37 37 39 42 45 47 48 49 49 49 49 49 50 49 49 49 46 41 40 39 38 38 38 39 39 40 41 40 38 37 36 36 37 38 39 39 39 41 47 53 52
36 37 38 38 39 39 39 40 41 42 42 40 40 41 41 41 42 43 42 40 38 37 38 39 39 39 39 39 37 35 35 35 36 38 39 40 42 45 48 50 50 49 49 49 49 50 49 49 49 46 41 39 39 39 39 39 39 39 39 40 41 40 40 40 39 38 39 40 42 43 41 43 51 54
34 36 37 37 38 38 38 39 41 41 40 39 40 41 41 41 42 42 40 38 36 37 37 38 38 38 38 37 35 34 34 35 36 38 39 41 44 46 49 51 51 51 50 49 49 50 50 49 49 46 42 39 38 38 39 39 38 38 39 40 41 42 44 45 45 44 42 41 43 45 45 43 48 55
33 35 36 37 37 37 38 39 40 39 39 39 40 40 41 42 42 41 38 36 35 36 37 37 38 37 36 35 34 34 34 36 37 38 40 42 45 47 49 50 52 51 50 49 49 50 51 50 49 47 43 40 38 38 39 40 40 41 42 42 43 45 48 49 49 48 47 45 44 45 47 46 47 54
33 34 35 35 36 36 38 39 39 38 38 38 39 40 41 41 41 39 37 35 35 36 36 36 37 36 34 34 33 34 34 36 37 39 41 43 46 49 50 51 51 51 50 49 49 51 52 51 50 48 44 42 41 41 41 42 43 45 46 47 49 51 52 51 50 49 49 49 47 46 48 50 49 52
32 33 34 34 35 36 37 38 37 36 37 38 39 39 40 41 40 38 36 34 34 35 35 36 36 35 33 33 34 34 35 36 38 40 43 46 49 51 52 52 51 50 50 50 50 52 53 53 52 49 46 44 44 44 44 45 46 48 50 52 53 50 47 45 44 44 46 49 51 50 49 52 52 52
32 33 34 34 35 36 37 36 35 35 36 38 38 39 40 41 39 36 34 33 33 35 35 35 35 34 34 34 34 35 36 38 40 43 45 48 50 51 52 52 51 50 51 51 51 52 53 54 53 51 48 47 47 46 47 48 49 51 54 56 52 45 41 40 40 39 40 44 49 52 52 54 55 54
32 33 34 35 35 35 35 35 34 35 36 37 38 39 40 40 37 33 32 32 33 34 34 35 35 35 35 35 35 38 41 42 44 45 47 49 50 50 51 51 52 51 51 51 51 52 53 54 54 53 49 47 47 48 50 51 52 54 56 53 47 41 39 39 39 39 39 39 43 50 53 56 57 56
33 34 34 34 34 35 34 34 34 35 36 37 38 38 40 39 35 32 31 32 33 34 36 37 36 36 36 37 40 42 44 44 45 46 47 49 49 49 50 51 51 51 51 52 51 52 53 54 55 54 50 48 48 50 52 53 54 56 53 47 43 41 39 38 37 36 34 35 38 46 53 56 58 57
33 34 34 34 34 34 33 33 34 35 36 37 38 38 39 38 34 30 31 32 34 36 37 37 36 36 38 39 41 43 43 44 45 46 47 48 48 49 50 50 50 50 51 51 51 52 53 54 56 55 51 48 49 52 54 54 55 56 51 44 42 41 39 38 36 31 27 27 33 43 52 56 57 57
33 33 33 33 34 34 33 33 34 35 36 37 38 38 38 35 31 29 30 32 34 36 36 36 35 36 37 39 40 42 43 44 44 45 47 48 49 49 50 49 50 51 51 51 51 52 53 55 57 56 53 51 51 54 56 55 57 56 49 45 45 42 39 37 32 25 21 21 28 39 50 55 55 55
32 33 33 34 35 33 32 32 33 35 36 37 38 38 36 32 29 29 30 32 33 35 35 34 34 35 36 38 39 42 43 44 45 46 48 49 49 49 49 49 50 51 52 52 52 51 53 55 57 57 54 51 52 56 56 55 58 55 48 46 46 41 38 35 28 20 16 17 24 35 47 53 54 54
32 33 34 35 35 33 31 32 33 34 36 37 38 37 33 29 28 28 29 30 32 33 33 33 33 35 36 37 39 42 43 44 46 47 49 49 49 48 48 50 51 51 52 53 53 52 53 55 57 59 56 51 52 55 54 55 58 55 48 46 45 39 35 32 25 17 12 13 20 31 43 51 53 52
32 33 34 36 35 33 31 31 33 34 36 37 37 34 30 27 27 27 28 30 31 32 32 32 33 34 35 37 39 41 42 43 45 46 47 48 48 48 48 50 51 52 53 53 53 53 54 55 57 60 59 55 55 54 52 54 58 54 47 47 45 37 31 30 25 16 9 8 15 27 39 47 51 51
33 34 35 36 36 33 31 31 32 34 35 36 35 31 28 26 26 26 27 29 30 31 32 32 33 34 35 36 38 40 41 43 44 45 47 48 48 48 49 49 51 51 52 53 53 53 54 55 57 59 59 57 55 54 52 54 56 51 47 47 44 36 30 28 25 18 9 4 11 23 34 43 47 48
33 34 35 35 34 32 29 30 31 33 34 34 32 29 27 25 24 25 26 28 30 30 31 31 32 33 34 36 37 39 41 42 43 45 46 47 48 49 49 50 51 51 51 53 53 53 53 55 57 59 59 57 54 52 52 53 53 48 44 44 42 36 31 29 26 20 12 1 10 20 31 39 43 45
33 34 34 34 32 30 28 29 31 32 33 32 30 28 25 24 24 24 26 27 29 30 30 31 32 33 34 35 37 38 40 42 43 44 46 47 48 48 48 49 50 51 51 52 53 53 52 54 56 58 59 58 54 50 51 54 53 46 41 41 39 35 32 30 27 22 14 3 11 19 27 34 39 42
32 32 32 32 31 29 28 29 30 31 32 31 29 27 25 24 23 24 25 27 28 29 30 31 32 33 34 35 36 38 40 41 42 43 44 45 46 46 47 47 48 49 50 51 53 52 52 53 54 57 59 58 54 49 49 53 54 46 40 39 37 33 31 30 27 22 13 5 10 17 22 28 34 38
32 32 32 32 31 30 29 30 31 31 31 30 28 26 25 23 22 23 25 26 27 28 30 31 32 33 34 35 36 38 39 41 42 42 43 43 44 44 45 46 47 48 49 50 51 51 51 52 52 55 57 57 54 49 46 50 52 48 40 36 34 31 29 27 25 21 13 6 8 12 17 22 28 34
32 32 32 32 31 30 30 31 31 31 31 30 27 25 24 23 22 23 24 26 27 28 30 31 32 32 33 34 36 37 39 40 41 42 42 43 43 43 44 44 45 46 48 49 50 50 51 51 51 52 55 56 54 49 45 45 49 48 42 37 32 28 26 23 21 19 14 8 7 9 13 18 23 29
32 32 32 31 30 29 29 30 31 30 29 29 27 25 24 23 22 23 24 26 27 28 29 30 31 32 33 34 35 37 38 39 40 41 42 42 43 43 43 42 43 44 47 48 48 49 50 50 49 50 52 54 54 50 44 43 46 47 45 41 34 27 24 22 19 18 16 12 7 7 9 14 19 24
33 32 32 31 30 29 28 29 30 29 28 28 28 26 24 23 22 22 24 26 27 27 29 30 31 32 33 34 35 36 37 38 39 40 41 42 42 42 42 42 42 43 44 45 46 48 49 49 49 49 50 51 52 50 45 41 42 45 45 43 39 31 24 21 19 16 16 14 11 9 8 10 15 20
33 32 31 31 30 30 30 30 29 28 28 29 29 27 25 23 22 22 24 26 27 27 29 30 31 32 33 33 34 35 36 37 38 39 40 41 42 42 41 41 42 42 43 44 45 46 47 47 47 48 48 49 49 49 46 42 41 42 41 41 41 36 26 19 17 16 15 14 13 11 10 9 11 15
32 32 31 31 31 31 31 31 29 28 29 31 30 27 25 23 22 22 24 25 26 27 28 29 30 31 32 33 33 34 35 36 37 39 40 41 41 41 41 41 41 41 41 43 44 45 45 45 45 46 47 47 47 47 46 44 41 40 39 39 40 39 32 22 15 13 13 12 12 11 10 10 10 12
32 32 32 32 32 33 33 32 30 29 31 32 30 27 25 23 22 22 23 25 26 27 28 29 30 31 31 32 33 34 34 35 37 39 39 39 40 40 40 41 40 40 40 42 42 43 44 44 44 44 44 45 46 45 45 45 43 40 38 37 38 39 38 30 19 11 10 10 9 9 9 9 10 10
32 32 32 33 33 33 33 32 30 31 33 32 29 26 25 24 23 23 23 24 26 27 28 28 29 30 31 31 32 33 33 35 37 38 37 38 39 39 40 40 40 39 40 40 41 42 43 43 44 44 43 43 45 44 44 45 45 41 37 36 37 37 37 35 28 17 9 6 6 7 7 8 9 10
34 33 33 33 34 34 33 32 31 33 33 30 27 25 25 24 23 23 23 24 25 27 28 28 29 30 30 31 32 32 33 34 35 36 36 37 38 39 39 39 39 39 40 40 40 41 42 42 43 44 44 43 43 44 44 45 45 43 38 35 35 35 34 35 33 25 15 9 6 6 7 8 10 10
35 35 34 34 33 33 33 32 34 34 32 29 27 26 25 24 24 23 24 25 26 27 27 28 28 29 30 30 31 32 32 33 34 35 36 37 37 38 38 38 39 40 39 39 39 39 40 41 42 43 44 44 43 43 44 44 45 44 39 34 32 32 32 31 30 28 23 17 14 11 10 11 12 12
36 35 35 34 33 33 33 34 37 36 32 29 27 26 25 24 24 24 24 25 26 27 28 28 28 29 29 30 30 31 32 32 33 34 35 35 36 37 37 37 39 39 38 38 38 38 39 40 40 41 43 45 45 44 44 43 43 43 41 37 32 29 29 29 28 27 25 22 20 18 15 13 14 14
35 35 34 34 34 33 33 35 38 37 34 30 28 27 26 25 24 24 24 25 25 27 27 28 28 28 28 29 30 30 31 31 32 33 34 34 35 35 36 37 37 38 38 37 37 37 38 38 39 40 42 43 44 43 41 40 40 40 40 39 34 30 28 27 26 25 24 22 20 19 17 15 15 15
35 35 35 34 33 33 34 36 38 38 35 31 29 27 26 25 25 24 25 25 26 27 28 28 28 28 28 28 29 29 30 31 32 32 33 33 33 34 35 35 36 37 38 37 36 36 37 38 38 39 39 39 39 39 37 36 36 36 37 38 37 33 29 26 25 23 22 21 20 18 16 14 15 16
35 35 34 33 32 32 34 36 39 39 36 33 30 28 26 25 25 24 24 25 26 27 28 28 28 28 28 28 29 29 30 31 32 32 32 32 33 33 33 34 34 35 36 37 36 35 35 36 36 36 36 36 36 37 37 36 35 35 35 35 36 35 32 27 24 22 21 19 17 15 14 14 14 15
38 37 35 34 35 36 37 38 39 38 36 34 32 29 27 26 25 24 25 25 26 27 28 28 27 28 28 29 29 29 30 31 32 32 32 31 31 32 32 32 33 35 35 36 36 35 34 33 34 34 34 35 35 36 37 37 36 34 33 33 33 34 33 30 26 21 19 18 16 12 11 12 12 12
39 37 36 36 38 39 40 39 39 38 36 34 33 30 28 27 25 25 25 25 26 27 27 27 27 27 27 28 29 29 30 31 32 32 32 31 31 31 32 32 33 34 35 35 34 33 32 32 32 33 33 33 34 35 35 35 35 33 32 31 31 30 31 32 30 24 18 16 14 12 9 7 7 8
37 36 36 38 40 40 39 39 38 38 37 35 33 31 29 27 26 26 25 26 26 27 27 27 27 27 27 27 28 28 29 30 30 31 32 31 31 31 32 32 32 33 34 34 33 32 31 31 31 31 31 32 33 34 35 35 34 32 30 29 29 29 28 29 30 28 23 17 13 11 9 6 3 4
Wind_Direction
302 304 304 305 306 307 309 309 309 309 309 311 311 312 313 314 315 315 316 317 318 319 320 321 322 322 321 320 319 319 319 318 318 317 317 316 316 316 318 320 320 319 318 318 318 317 316 316 316 315 314 314 314 308 298 292 289 287 285 281 277 274 273 275 278 272 257 245 241 239 236 233 230 229
302 303 304 304 305 307 307 308 307 308 309 310 310 311 312 313 314 314 315 316 317 319 320 322 323 322 320 319 318 319 319 319 319 318 318 317 317 319 320 320 320 319 319 319 319 318 318 317 317 315 314 313 312 307 301 298 296 293 289 286 281 274 268 268 271 274 269 253 241 237 236 234 230 228
302 303 304 305 305 306 306 306 306 307 308 309 310 311 312 312 312 313 314 315 316 318 320 322 322 320 319 318 318 320 320 319 319 319 318 318 319 320 320 320 321 320 320 320 320 319 319 318 316 315 314 313 312 307 303 302 299 293 288 286 284 277 269 264 264 267 270 264 248 238 234 233 231 228
303 305 305 305 305 305 306 305 305 307 307 308 309 310 311 311 311 312 313 314 315 318 320 320 320 318 317 318 319 320 320 320 320 319 318 318 320 321 321 322 322 322 321 322 321 320 319 317 316 316 315 314 312 309 306 304 300 291 284 283 282 278 273 266 262 261 264 266 258 244 235 232 231 228
304 306 306 305 305 305 305 304 305 306 307 308 310 310 311 311 311 312 313 313 315 318 319 319 318 317 317 319 320 321 321 321 319 318 319 320 322 322 323 324 323 323 323 323 322 320 319 318 318 318 316 315 313 311 308 305 300 290 283 282 281 277 273 268 264 261 259 260 261 253 240 232 230 228
304 305 305 305 305 305 304 304 305 306 307 309 310 310 311 310 310 312 312 312 315 317 318 317 316 316 318 321 322 322 322 321 319 320 321 322 323 324 325 325 325 325 324 323 322 320 320 320 320 319 317 315 314 312 309 304 299 292 286 283 282 279 275 270 265 263 260 257 257 256 248 236 230 228
302 304 305 304 304 304 304 305 306 307 309 310 310 311 311 311 311 313 312 313 315 316 316 315 316 318 322 323 323 323 323 321 320 322 323 324 325 326 325 326 326 326 325 324 322 322 323 323 323 321 318 315 314 312 309 303 297 292 288 285 284 283 280 274 268 262 260 258 254 254 252 243 232 228
301 302 304 304 304 304 305 305 307 308 309 309 310 312 313 313 314 314 313 314 316 316 315 316 318 322 325 324 324 324 323 321 322 324 325 327 327 326 326 327 327 327 326 325 324 324 325 325 325 322 319 316 314 312 308 303 296 292 290 289 287 285 281 278 272 264 259 257 254 251 250 246 237 229
299 301 303 303 303 304 305 306 307 308 308 309 310 312 314 315 315 316 317 318 318 318 318 319 322 325 326 325 324 324 322 322 324 326 327 328 327 327 328 327 328 328 328 327 326 326 327 328 327 324 320 317 315 312 308 303 298 295 292 291 290 286 281 276 273 267 259 256 254 251 248 246 241 232
299 301 302 302 302 303 304 305 306 308 308 309 310 312 314 316 318 319 321 322 321 320 320 323 325 326 326 325 325 323 323 325 326 327 328 328 328 328 328 329 330 330 330 329 328 328 329 330 329 325 321 318 315 312 308 304 301 298 294 292 290 285 280 275 271 267 260 255 254 251 247 244 242 236
298 300 300 301 302 303 303 305 307 308 308 309 310 313 316 318 320 322 323 323 321 321 322 325 326 326 326 326 324 324 326 328 328 328 328 329 329 329 330 331 332 332 332 331 329 329 331 332 330 327 324 321 317 313 310 307 303 300 296 293 289 284 278 273 270 266 261 256 252 250 247 242 240 237
297 298 299 300 302 302 304 306 307 307 307 309 311 314 317 319 321 323 323 323 321 321 323 325 327 327 327 325 325 326 328 328 328 328 329 330 331 332 333 333 333 334 334 332 330 330 332 334 333 330 327 323 319 316 313 310 307 304 301 296 291 285 280 275 270 266 262 258 253 250 247 242 237 236
298 299 300 301 302 303 305 306 306 307 308 310 313 315 317 320 321 323 324 323 321 321 323 326 328 328 327 326 326 328 328 329 330 330 331 332 334 335 335 335 334 335 335 333 332 332 334 336 336 333 329 325 321 319 318 317 316 312 307 302 297 291 284 278 272 265 260 257 253 249 246 242 236 233
300 300 301 302 303 304 305 306 307 308 309 311 314 316 319 321 322 324 324 321 319 321 323 326 328 329 328 327 327 329 330 331 332 332 332 334 336 337 337 336 336 335 334 334 333 333 335 338 339 336 332 328 325 324 324 323 320 316 312 307 302 297 290 282 273 264 257 253 251 247 244 241 235 230
302 301 302 303 304 305 305 306 308 309 310 313 316 318 320 321 323 324 323 320 321 323 324 327 330 330 329 328 329 331 332 333 334 334 335 337 338 338 338 338 337 335 335 335 336 336 337 340 341 339 335 332 329 328 328 326 323 320 316 311 306 301 295 287 278 267 257 250 246 245 242 238 234 229
303 304 304 305 306 306 306 307 308 309 311 314 317 319 321 322 324 325 323 321 321 323 325 329 330 329 329 330 332 333 334 335 337 337 338 340 340 340 339 338 337 337 337 338 338 338 339 341 342 342 339 335 332 332 332 331 327 323 317 312 310 306 299 292 284 273 260 250 245 243 239 234 231 227
307 307 307 307 308 307 307 308 308 309 312 315 317 319 321 323 324 323 321 320 320 323 328 329 329 330 333 334 334 335 337 340 340 340 341 341 341 340 338 338 339 339 340 339 340 340 341 341 343 345 343 337 335 335 335 334 331 326 320 317 316 311 303 296 290 281 268 254 244 239 233 228 226 224
309 309 309 309 308 308 308 308 308 310 314 316 317 319 321 323 323 320 318 319 321 326 329 330 331 334 335 335 338 341 343 343 342 341 341 341 340 340 339 340 341 341 341 340 341 342 342 342 345 347 344 340 337 337 336 335 333 330 326 322 320 314 306 299 294 285 273 257 241 232 226 221 220 219
310 310 309 309 309 308 308 308 308 311 314 316 318 319 321 323 322 319 318 320 323 327 330 332 335 336 338 341 344 344 343 341 341 340 340 340 340 341 343 344 342 341 342 342 343 344 344 344 346 348 346 343 340 339 338 336 334 333 331 328 324 319 313 307 301 292 276 256 238 226 219 215 215 216
310 310 310 310 309 309 308 308 309 312 315 318 319 320 321 322 320 318 319 322 326 329 332 335 337 338 342 344 343 341 340 340 340 340 340 340 342 345 346 345 343 342 343 344 344 346 346 346 347 348 348 345 342 340 339 336 334 336 336 333 330 326 322 318 311 300 280 254 233 220 214 210 211 212
310 310 311 310 310 309 308 308 310 312 316 318 320 321 322 321 319 318 321 325 329 331 334 336 337 340 342 341 339 339 340 340 340 340 341 343 345 347 346 345 345 344 344 346 346 347 348 349 349 349 349 348 345 342 341 338 336 339 339 337 336 333 329 326 320 306 284 253 228 215 209 206 208 209
310 311 311 311 310 309 309 310 311 313 317 319 321 321 321 319 317 319 322 327 329 331 333 335 337 338 339 339 340 340 340 340 341 342 343 345 346 346 346 347 347 346 346 347 347 348 351 352 351 350 350 350 348 346 343 341 340 343 344 343 341 337 333 332 329 314 289 253 225 211 204 203 205 205
311 311 311 311 310 309 309 310 312 315 319 320 321 321 319 317 316 319 324 327 328 329 331 333 335 336 337 339 341 341 340 341 343 343 344 344 344 345 347 348 348 348 348 348 348 350 353 355 354 352 351 351 352 351 347 343 344 348 350 347 345 342 338 340 341 328 298 256 225 208 200 200 202 202
312 312 310 309 309 309 308 309 312 317 320 321 321 319 316 315 315 319 324 325 326 327 329 332 334 334 337 341 341 341 342 342 343 343 343 343 344 346 348 349 349 350 350 349 350 352 355 356 356 355 353 353 356 355 351 348 348 352 353 350 349 349 347 350 354 348 321 265 223 205 197 196 197 198
312 311 309 309 310 310 308 309 313 318 320 320 319 317 314 313 315 318 322 323 324 325 327 331 332 334 337 341 341 341 342 342 343 344 343 344 345 347 348 349 350 350 350 350 352 354 356 357 358 357 356 356 357 357 356 354 353 355 356 354 354 358 360 2 6 6 355 278 212 197 192 191 193 194
311 309 308 310 311 310 308 310 315 318 319 319 318 315 312 311 314 317 319 321 321 322 326 329 331 333 338 340 341 342 343 342 343 344 344 346 347 347 348 349 350 351 350 351 354 356 357 358 359 359 359 359 358 358 360 1 359 360 360 358 1 6 10 13 17 17 16 17 191 187 186 187 190 192
309 308 308 310 311 308 306 310 315 316 317 318 317 313 310 310 312 315 317 318 318 320 325 328 329 333 337 339 341 343 343 343 344 345 346 347 347 348 348 349 350 351 351 352 355 357 357 359 0 0 1 1 359 359 2 4 4 4 4 4 7 13 17 22 25 21 19 69 170 176 180 186 189 192
308 308 308 309 310 307 305 308 312 314 316 318 316 312 308 307 309 312 314 314 316 320 323 325 328 333 336 339 341 343 343 344 344 345 346 348 348 348 348 348 350 351 351 354 356 357 358 1 1 2 3 2 0 1 4 6 7 7 8 9 12 18 23 27 28 23 22 77 156 171 178 186 191 194
308 307 307 308 308 306 305 306 308 311 314 316 315 310 305 304 307 310 311 313 316 319 321 323 327 331 335 338 341 342 342 343 344 345 347 347 348 349 349 349 350 350 352 355 356 356 359 2 2 4 5 4 2 3 6 8 9 9 11 13 14 19 26 32 31 24 26 78 143 169 179 186 193 195
307 306 306 307 306 305 305 305 305 308 312 314 313 306 301 301 305 307 309 312 314 315 318 322 326 330 334 337 339 340 342 342 343 345 346 346 348 349 350 350 350 350 353 356 355 356 360 2 3 5 6 6 6 6 7 9 11 12 14 16 16 17 24 33 38 34 34 63 124 162 177 184 191 194
305 304 304 304 303 303 304 304 303 306 310 313 311 304 298 298 302 304 307 309 309 312 316 320 324 329 333 336 338 339 340 341 343 345 345 346 348 349 349 350 350 351 355 356 354 356 0 2 2 5 8 7 8 9 8 9 13 16 17 18 17 17 20 28 37 43 44 54 86 133 163 178 186 190
302 302 302 301 300 299 300 300 301 304 308 311 310 302 295 295 298 302 303 304 305 309 314 319 324 329 332 334 336 337 339 340 343 344 345 346 348 349 349 350 350 352 356 356 354 357 1 1 1 5 8 8 9 12 11 10 13 18 20 20 18 16 17 23 32 44 54 61 74 98 131 162 179 185
300 300 299 298 297 295 295 296 299 302 306 308 307 300 294 293 296 299 300 301 304 309 314 319 323 326 329 331 334 335 338 340 342 344 345 346 348 348 349 350 350 352 355 355 355 359 2 1 2 5 7 8 10 13 14 13 13 17 21 23 22 17 14 18 29 42 55 66 76 91 114 142 165 178
300 298 297 297 295 293 293 294 296 300 303 305 304 298 291 289 291 294 297 299 303 307 312 317 320 323 326 329 332 334 337 339 342 345 345 346 346 347 349 350 349 350 354 354 355 359 1 1 4 6 7 7 8 12 15 15 15 18 21 23 23 21 17 14 20 36 52 65 77 90 107 127 147 165
300 298 296 295 294 293 292 292 293 297 302 304 302 295 289 286 288 292 296 298 301 305 309 313 317 320 324 327 330 332 335 340 343 344 343 343 344 347 350 350 348 350 353 353 355 358 359 1 3 6 8 8 7 10 15 16 16 19 23 24 24 24 23 20 17 23 43 61 77 91 104 120 136 152
299 297 296 295 294 293 291 290 291 296 301 302 298 292 287 284 286 290 293 296 298 301 305 310 314 318 321 325 327 331 336 341 342 340 340 342 344 347 350 349 348 350 351 351 353 357 358 359 1 4 8 9 7 9 14 16 16 18 22 25 25 23 22 22 21 20 25 47 75 98 107 116 130 143
296 296 296 295 294 292 290 288 290 295 298 298 294 289 284 280 283 287 290 293 295 297 301 306 311 316 320 323 326 330 336 339 337 336 339 342 344 347 349 348 349 351 350 349 352 356 357 358 359 2 6 9 10 10 12 14 15 16 19 24 26 22 19 22 23 25 30 40 60 97 114 115 119 131
294 295 295 294 293 291 288 286 288 292 294 292 290 287 281 277 280 284 287 290 293 295 299 304 309 314 318 321 325 330 334 334 335 337 340 342 343 346 347 347 350 351 348 348 351 354 356 357 358 1 4 6 9 11 12 12 12 14 17 22 25 23 21 21 23 28 37 46 53 66 90 108 113 120
293 294 294 293 292 291 287 284 286 289 290 289 287 283 276 273 276 280 284 288 291 294 297 301 305 310 315 319 324 328 329 331 334 338 339 341 342 343 345 347 350 349 347 347 350 352 354 356 357 0 3 5 7 10 12 11 10 10 13 19 23 23 23 22 22 27 35 43 50 56 65 85 102 114
294 295 294 294 293 291 287 284 285 287 287 286 284 279 273 270 273 277 281 285 289 291 294 297 302 307 313 317 321 323 325 329 334 337 338 340 340 341 344 347 348 347 346 348 349 351 352 354 357 0 4 6 7 8 9 10 9 8 10 15 18 21 25 26 24 25 30 37 46 56 64 74 89 103
295 295 295 294 293 290 285 283 284 286 285 283 281 275 269 266 269 274 278 283 287 290 293 296 300 304 310 314 316 319 323 328 332 336 337 337 338 340 343 345 345 346 346 347 348 350 351 353 356 359 2 4 5 5 5 7 9 9 10 12 14 18 26 31 28 25 28 34 41 50 62 77 93 104
296 295 294 294 294 291 287 284 284 285 284 282 278 272 265 262 266 270 274 279 284 288 291 294 297 301 306 309 313 318 323 327 330 333 335 336 337 340 341 342 343 345 346 347 347 349 350 351 354 356 358 360 1 2 2 4 7 9 10 11 13 14 20 28 31 29 29 33 40 47 55 68 86 101
294 294 293 294 295 293 289 285 282 282 283 282 279 272 263 260 262 267 270 274 279 283 287 291 294 298 302 307 312 317 321 324 327 331 333 335 336 337 338 340 342 344 346 346 347 346 347 350 352 352 354 356 358 360 2 3 5 5 7 10 13 14 15 19 25 31 33 34 36 44 56 65 77 97
295 295 294 293 292 292 290 286 282 281 282 282 279 272 262 257 259 264 268 272 276 280 285 289 292 295 300 305 310 315 319 323 326 328 331 333 333 334 336 339 341 343 344 345 345 344 345 347 349 351 352 353 355 357 360 2 3 3 4 6 10 12 14 15 17 23 33 37 34 33 40 58 82 104
297 296 293 288 286 287 288 288 286 283 281 281 279 271 261 255 257 261 266 270 274 278 283 287 291 294 298 302 306 311 316 319 322 325 328 330 331 332 334 336 338 341 342 342 342 343 344 345 347 349 351 351 352 354 357 359 0 1 1 3 5 8 13 15 15 16 21 27 31 29 30 39 74 113
Height
5789 5788 5786 5784 5782 5780 5777 5775 5772 5770 5767 5764 5761 5758 5756 5753 5750 5747 5744 5740 5736 5733 5731 5728 5724 5720 5717 5713 5710 5706 5702 5698 5694 5691 5687 5684 5681 5677 5674 5670 5667 5663 5659 5655 5650 5645 5641 5636 5632 5627 5623 5619 5616 5613 5611 5610 5609 5607 5606 5604 5603 5601 5600 5600 5600 5601 5602 5604 5607 5612 5616 5621 5628 5634
5786 5785 5783 5781 5778 5776 5774 5771 5769 5766 5763 5760 5757 5755 5752 5749 5746 5743 5740 5737 5733 5729 5726 5723 5719 5715 5712 5709 5706 5702 5697 5693 5690 5686 5683 5680 5677 5673 5670 5666 5663 5658 5654 5650 5645 5640 5635 5630 5625 5621 5616 5613 5609 5606 5604 5603 5601 5599 5598 5596 5595 5594 5593 5593 5593 5594 5595 5596 5598 5602 5607 5612 5617 5624
5783 5781 5779 5777 5775 5772 5770 5768 5765 5762 5759 5756 5754 5751 5748 5745 5742 5739 5736 5732 5730 5727 5722 5718 5715 5712 5708 5705 5701 5697 5693 5689 5686 5682 5679 5676 5673 5670 5666 5663 5658 5654 5649 5645 5640 5635 5629 5624 5620 5615 5610 5606 5602 5600 5597 5595 5594 5592 5591 5590 5589 5587 5587 5587 5587 5587 5588 5589 5590 5593 5598 5603 5608 5614
5780 5778 5776 5773 5771 5769 5766 5764 5761 5758 5755 5752 5749 5746 5743 5740 5737 5734 5732 5728 5725 5722 5720 5715 5711 5708 5705 5701 5697 5693 5689 5686 5682 5679 5675 5672 5669 5666 5662 5658 5654 5649 5644 5640 5635 5630 5625 5619 5614 5609 5604 5599 5596 5593 5591 5588 5587 5586 5585 5584 5584 5582 5581 5581 5581 5581 5581 5582 5584 5586 5589 5594 5599 5604
5776 5774 5772 5770 5767 5765 5762 5760 5757 5754 5751 5748 5745 5742 5739 5736 5733 5730 5728 5724 5721 5717 5714 5711 5708 5705 5701 5697 5693 5689 5686 5682 5679 5675 5672 5668 5665 5662 5658 5654 5649 5644 5639 5635 5630 5625 5620 5614 5609 5603 5598 5593 5590 5587 5584 5582 5580 5580 5579 5578 5578 5577 5576 5575 5575 5575 5575 5575 5577 5578 5581 5585 5590 5595
5773 5771 5768 5766 5764 5761 5759 5756 5754 5751 5748 5745 5742 5739 5735 5732 5729 5727 5724 5721 5717 5713 5710 5707 5704 5701 5697 5693 5689 5685 5682 5678 5675 5671 5668 5664 5661 5657 5653 5650 5645 5640 5635 5630 5625 5620 5615 5609 5603 5598 5592 5588 5584 5581 5579 5577 5575 5574 5573 5572 5572 5571 5571 5570 5569 5569 5569 5569 5569 5571 5573 5577 5581 5586
5769 5767 5765 5762 5760 5758 5755 5752 5750 5747 5744 5741 5738 5735 5732 5728 5725 5723 5720 5717 5714 5710 5706 5703 5701 5697 5693 5689 5685 5682 5678 5674 5670 5667 5664 5660 5657 5653 5649 5645 5641 5636 5631 5626 5621 5616 5610 5604 5598 5592 5587 5582 5579 5576 5573 5571 5570 5569 5567 5566 5565 5564 5564 5563 5562 5562 5562 5563 5563 5564 5566 5569 5573 5577
5765 5763 5761 5759 5756 5754 5751 5749 5746 5743 5740 5737 5734 5731 5728 5725 5722 5719 5716 5713 5710 5707 5703 5700 5696 5693 5689 5685 5681 5678 5674 5670 5666 5663 5660 5657 5653 5649 5645 5641 5637 5632 5626 5621 5616 5610 5605 5599 5593 5587 5581 5577 5574 5571 5568 5566 5564 5563 5561 5560 5558 5558 5557 5556 5555 5555 5555 5556 5556 5557 5558 5561 5565 5569
5761 5759 5757 5755 5752 5750 5748 5745 5742 5739 5736 5733 5730 5727 5724 5721 5718 5715 5712 5709 5705 5702 5699 5696 5692 5688 5685 5682 5678 5674 5671 5667 5663 5660 5656 5653 5649 5646 5641 5637 5633 5628 5623 5616 5611 5605 5600 5594 5588 5582 5576 5572 5568 5565 5563 5561 5559 5557 5555 5553 5552 5550 5550 5549 5548 5548 5548 5548 5549 5550 5551 5553 5556 5561
5757 5755 5753 5751 5748 5746 5744 5741 5738 5735 5732 5730 5727 5724 5721 5717 5714 5711 5708 5704 5701 5698 5695 5692 5688 5685 5681 5678 5675 5671 5667 5664 5660 5657 5654 5650 5646 5642 5638 5633 5628 5624 5618 5612 5606 5601 5595 5590 5583 5577 5571 5567 5564 5560 5558 5555 5553 5550 5548 5546 5544 5543 5542 5542 5541 5541 5541 5541 5541 5542 5544 5545 5548 5552
5753 5751 5749 5747 5744 5742 5739 5737 5734 5731 5729 5726 5723 5720 5717 5713 5710 5707 5703 5700 5697 5694 5691 5688 5685 5681 5678 5675 5671 5668 5664 5660 5656 5653 5651 5648 5643 5638 5634 5629 5624 5619 5614 5608 5602 5596 5591 5586 5579 5572 5567 5562 5558 5555 5552 5550 5547 5544 5541 5538 5536 5535 5534 5533 5533 5533 5533 5533 5534 5534 5536 5537 5539 5543
5750 5747 5745 5743 5740 5738 5735 5733 5730 5728 5725 5722 5719 5716 5713 5709 5706 5703 5699 5696 5693 5690 5687 5684 5681 5678 5675 5671 5668 5665 5661 5658 5654 5650 5647 5644 5640 5635 5629 5624 5620 5615 5610 5604 5598 5592 5587 5582 5574 5567 5562 5558 5553 5550 5547 5544 5541 5538 5534 5531 5529 5527 5525 5524 5524 5524 5524 5524 5525 5526 5527 5529 5531 5534
5746 5744 5741 5739 5736 5734 5732 5729 5726 5724 5721 5718 5715 5712 5709 5706 5703 5699 5696 5693 5690 5687 5684 5681 5678 5675 5671 5668 5665 5662 5658 5655 5651 5647 5643 5639 5635 5631 5625 5619 5614 5610 5605 5600 5594 5588 5583 5577 5570 5562 5557 5553 5549 5545 5541 5538 5534 5530 5527 5524 5521 5518 5516 5514 5513 5513 5513 5514 5515 5517 5519 5520 5522 5524
5742 5740 5737 5735 5733 5730 5728 5725 5722 5720 5717 5714 5711 5708 5705 5702 5699 5696 5693 5690 5687 5684 5681 5678 5675 5672 5669 5665 5662 5659 5655 5651 5647 5644 5640 5636 5632 5627 5622 5616 5610 5605 5600 5596 5590 5583 5578 5572 5565 5558 5553 5548 5544 5540 5535 5531 5527 5523 5519 5515 5511 5508 5504 5502 5500 5501 5501 5502 5504 5507 5509 5512 5513 5515
5738 5736 5734 5731 5729 5727 5724 5721 5719 5716 5713 5711 5708 5704 5701 5699 5696 5693 5690 5687 5684 5681 5678 5674 5672 5669 5666 5662 5659 5655 5652 5648 5644 5640 5636 5632 5628 5623 5618 5613 5607 5602 5596 5591 5586 5579 5572 5567 5561 5554 5548 5543 5538 5533 5529 5525 5520 5515 5510 5506 5501 5496 5490 5487 5485 5486 5487 5489 5491 5495 5498 5501 5504 5507
5734 5732 5730 5728 5725 5723 5720 5718 5715 5713 5710 5707 5704 5701 5698 5695 5692 5689 5686 5683 5681 5678 5675 5671 5669 5666 5663 5659 5655 5652 5649 5645 5641 5637 5632 5628 5623 5618 5613 5608 5603 5598 5592 5586 5581 5574 5567 5562 5556 5549 5543 5537 5532 5527 5522 5517 5512 5507 5501 5496 5489 5483 5477 5473 5470 5470 5472 5474 5477 5481 5486 5490 5494 5498
5730 5728 5726 5724 5721 5719 5716 5714 5712 5709 5707 5704 5701 5698 5695 5692 5688 5686 5683 5681 5678 5675 5672 5669 5666 5663 5660 5656 5652 5648 5644 5641 5637 5633 5629 5624 5620 5615 5610 5604 5599 5594 5588 5582 5577 5570 5563 5557 5551 5545 5538 5532 5526 5521 5515 5510 5505 5499 5491 5484 5477 5471 5467 5462 5459 5457 5457 5459 5462 5466 5472 5477 5483 5488
5726 5724 5722 5720 5717 5715 5713 5710 5708 5706 5704 5701 5698 5695 5692 5689 5686 5683 5680 5678 5675 5672 5669 5667 5663 5659 5656 5652 5648 5644 5640 5636 5633 5629 5626 5622 5618 5613 5607 5601 5595 5589 5584 5578 5573 5567 5560 5553 5547 5541 5534 5528 5521 5515 5509 5503 5497 5490 5481 5473 5467 5462 5457 5453 5449 5446 5444 5444 5447 5452 5458 5465 5472 5478
5723 5721 5718 5716 5714 5711 5709 5707 5705 5703 5700 5698 5695 5692 5689 5686 5683 5681 5678 5675 5672 5669 5666 5663 5659 5656 5652 5648 5644 5641 5638 5634 5631 5627 5623 5619 5615 5611 5605 5598 5592 5587 5581 5575 5569 5564 5557 5549 5543 5537 5531 5523 5516 5510 5504 5497 5490 5482 5473 5465 5458 5453 5448 5443 5438 5434 5431 5431 5434 5439 5446 5454 5462 5469
5719 5717 5715 5712 5710 5707 5705 5703 5701 5699 5697 5695 5692 5689 5686 5683 5680 5678 5675 5672 5669 5666 5662 5659 5656 5653 5649 5646 5643 5640 5637 5634 5630 5626 5621 5617 5612 5607 5601 5596 5591 5585 5579 5573 5566 5560 5554 5546 5539 5533 5527 5520 5513 5506 5499 5492 5484 5475 5466 5458 5452 5445 5439 5434 5428 5424 5421 5421 5424 5430 5437 5446 5454 5463
5715 5713 5711 5708 5706 5704 5702 5700 5698 5696 5694 5691 5688 5686 5683 5680 5677 5674 5672 5669 5666 5663 5660 5657 5655 5652 5648 5645 5643 5639 5635 5632 5628 5624 5619 5614 5609 5604 5599 5594 5589 5582 5576 5571 5564 5558 5551 5543 5535 5529 5523 5517 5509 5502 5495 5487 5478 5468 5459 5452 5445 5438 5432 5427 5421 5417 5414 5415 5418 5423 5431 5440 5449 5457
5711 5709 5707 5705 5702 5700 5698 5696 5695 5693 5690 5688 5685 5682 5679 5677 5674 5672 5669 5666 5663 5661 5658 5656 5653 5651 5648 5645 5641 5638 5634 5629 5625 5620 5615 5610 5606 5601 5597 5592 5586 5580 5574 5568 5562 5556 5549 5541 5533 5526 5520 5515 5507 5498 5490 5482 5473 5464 5456 5448 5440 5433 5427 5422 5417 5413 5411 5412 5414 5419 5426 5436 5445 5454
5707 5705 5703 5701 5698 5696 5695 5693 5691 5689 5687 5684 5682 5679 5676 5674 5672 5669 5667 5664 5661 5659 5657 5655 5652 5650 5647 5643 5640 5636 5632 5627 5622 5617 5612 5608 5604 5600 5595 5589 5584 5578 5572 5565 5559 5553 5546 5539 5531 5523 5516 5511 5505 5496 5487 5478 5470 5461 5453 5446 5439 5431 5425 5420 5415 5412 5410 5411 5413 5417 5424 5433 5442 5451
5703 5701 5699 5697 5695 5693 5691 5689 5688 5686 5684 5681 5678 5676 5673 5671 5669 5667 5664 5662 5660 5658 5655 5653 5651 5648 5645 5642 5638 5634 5630 5625 5621 5616 5611 5607 5602 5597 5592 5587 5581 5575 5569 5563 5557 5550 5544 5537 5530 5521 5513 5506 5500 5493 5485 5475 5466 5458 5452 5445 5438 5431 5425 5420 5416 5413 5412 5412 5414 5418 5424 5432 5441 5450
5700 5698 5695 5693 5691 5689 5688 5686 5684 5682 5680 5678 5675 5673 5671 5669 5666 5664 5662 5660 5658 5656 5654 5652 5649 5646 5643 5640 5637 5633 5629 5624 5620 5615 5610 5605 5600 5595 5590 5585 5580 5574 5568 5563 5556 5549 5543 5536 5529 5522 5513 5505 5499 5493 5485 5475 5465 5457 5451 5446 5439 5432 5427 5423 5419 5416 5415 5415 5417 5420 5426 5433 5442 5450
5696 5694 5691 5689 5688 5686 5684 5683 5681 5679 5677 5674 5672 5670 5668 5666 5664 5662 5660 5658 5656 5654 5652 5650 5647 5645 5641 5638 5635 5632 5627 5623 5618 5614 5609 5603 5598 5593 5588 5583 5578 5573 5568 5562 5555 5549 5542 5535 5528 5521 5514 5506 5500 5493 5487 5478 5468 5460 5454 5448 5441 5435 5430 5426 5423 5421 5421 5421 5422 5426 5431 5437 5444 5451
5692 5690 5688 5686 5684 5682 5681 5680 5678 5676 5674 5671 5669 5667 5665 5663 5662 5660 5658 5656 5654 5652 5650 5648 5645 5643 5639 5636 5633 5630 5626 5621 5617 5612 5608 5602 5597 5592 5587 5582 5577 5571 5566 5561 5554 5548 5542 5535 5528 5521 5513 5506 5500 5494 5487 5479 5471 5463 5458 5452 5446 5440 5435 5432 5429 5428 5427 5427 5429 5432 5436 5442 5448 5454
5689 5687 5684 5682 5681 5679 5678 5676 5675 5673 5671 5669 5666 5664 5663 5661 5659 5657 5656 5654 5652 5650 5648 5646 5643 5640 5637 5634 5631 5628 5624 5620 5616 5612 5607 5602 5597 5592 5587 5582 5577 5572 5567 5561 5554 5549 5543 5536 5529 5522 5514 5507 5501 5494 5487 5480 5473 5466 5461 5456 5450 5446 5442 5439 5437 5435 5434 5434 5436 5439 5443 5447 5452 5457
5685 5683 5681 5679 5678 5676 5674 5673 5671 5669 5668 5666 5664 5662 5660 5659 5657 5655 5653 5652 5650 5648 5646 5644 5641 5638 5635 5632 5629 5626 5622 5618 5615 5611 5607 5602 5598 5593 5587 5582 5577 5572 5567 5561 5555 5550 5544 5537 5531 5524 5517 5510 5503 5496 5489 5483 5476 5470 5465 5460 5456 5453 5449 5446 5443 5442 5441 5441 5442 5445 5448 5452 5456 5461
5681 5679 5678 5676 5674 5673 5671 5670 5668 5666 5665 5663 5661 5659 5657 5656 5654 5653 5651 5649 5648 5646 5644 5641 5639 5637 5634 5630 5627 5624 5621 5617 5613 5610 5606 5602 5597 5593 5588 5583 5578 5573 5567 5561 5556 5551 5545 5539 5533 5526 5519 5513 5506 5499 5493 5487 5480 5474 5469 5465 5461 5458 5455 5452 5449 5448 5447 5447 5448 5450 5452 5456 5460 5464
5677 5676 5674 5672 5671 5669 5668 5666 5665 5663 5661 5660 5658 5656 5655 5653 5652 5650 5649 5647 5646 5644 5642 5639 5637 5634 5631 5629 5626 5623 5619 5616 5612 5608 5605 5601 5596 5592 5588 5584 5579 5573 5567 5562 5557 5552 5545 5540 5535 5528 5522 5516 5509 5502 5496 5491 5485 5479 5473 5469 5466 5463 5460 5457 5454 5453 5452 5451 5452 5454 5456 5459 5463 5467
5674 5672 5670 5669 5667 5666 5664 5663 5661 5660 5658 5657 5655 5653 5652 5650 5649 5647 5646 5645 5643 5642 5639 5637 5634 5632 5629 5627 5624 5621 5618 5615 5611 5607 5603 5600 5595 5591 5587 5583 5579 5574 5569 5564 5559 5553 5546 5541 5536 5530 5525 5519 5513 5507 5501 5495 5489 5484 5478 5473 5469 5466 5464 5462 5459 5458 5456 5456 5456 5457 5460 5462 5466 5469
5670 5668 5667 5665 5664 5662 5661 5659 5658 5657 5655 5653 5652 5650 5649 5647 5646 5645 5644 5642 5641 5639 5637 5634 5632 5630 5627 5625 5622 5620 5617 5613 5610 5606 5602 5598 5595 5591 5587 5582 5578 5574 5569 5565 5561 5555 5549 5544 5538 5532 5527 5522 5517 5511 5505 5499 5494 5488 5483 5479 5474 5471 5468 5467 5465 5463 5461 5461 5461 5462 5463 5466 5469 5471
5666 5664 5663 5661 5660 5658 5657 5656 5655 5653 5652 5650 5648 5647 5645 5644 5643 5642 5641 5639 5638 5636 5634 5632 5630 5628 5625 5623 5620 5618 5615 5612 5608 5605 5601 5597 5594 5590 5586 5582 5578 5573 5569 5565 5561 5556 5552 5547 5541 5535 5529 5524 5520 5514 5509 5503 5497 5492 5487 5484 5480 5476 5473 5470 5469 5467 5466 5466 5466 5466 5467 5469 5471 5473
5662 5660 5659 5657 5656 5655 5653 5652 5651 5649 5648 5647 5645 5643 5642 5641 5640 5639 5638 5636 5635 5633 5631 5630 5628 5626 5623 5621 5618 5616 5613 5610 5606 5603 5600 5597 5593 5589 5585 5581 5577 5573 5569 5565 5561 5556 5552 5548 5544 5539 5533 5527 5522 5517 5512 5506 5501 5496 5492 5488 5485 5481 5478 5474 5472 5471 5470 5469 5469 5470 5471 5472 5473 5475
5658 5656 5655 5653 5652 5651 5649 5648 5647 5646 5644 5643 5641 5640 5639 5637 5636 5636 5635 5634 5632 5631 5629 5627 5625 5623 5621 5619 5617 5614 5611 5608 5605 5602 5600 5596 5592 5588 5584 5580 5576 5572 5568 5565 5561 5556 5552 5548 5544 5540 5535 5530 5525 5519 5513 5509 5505 5500 5496 5492 5489 5486 5483 5479 5476 5474 5473 5473 5472 5473 5473 5474 5475 5477
5653 5652 5651 5649 5648 5646 5645 5644 5643 5642 5640 5639 5637 5636 5635 5634 5633 5632 5632 5631 5630 5628 5626 5625 5623 5621 5619 5617 5614 5612 5609 5607 5604 5601 5598 5595 5591 5588 5584 5580 5576 5572 5568 5564 5561 5557 5553 5548 5544 5540 5536 5532 5527 5521 5516 5511 5508 5504 5500 5496 5493 5490 5487 5484 5481 5479 5477 5476 5475 5475 5476 5476 5477 5479
5649 5648 5646 5645 5644 5642 5641 5640 5638 5637 5636 5635 5633 5632 5631 5631 5630 5629 5628 5627 5626 5625 5623 5622 5620 5618 5617 5615 5612 5610 5607 5605 5603 5599 5596 5593 5590 5587 5584 5580 5576 5572 5568 5565 5561 5557 5553 5549 5544 5540 5536 5531 5527 5523 5518 5514 5511 5507 5504 5500 5497 5495 5492 5489 5486 5484 5482 5480 5479 5479 5479 5479 5479 5481
5644 5643 5642 5640 5639 5638 5637 5635 5634 5633 5632 5631 5629 5628 5627 5627 5626 5625 5625 5624 5623 5622 5620 5619 5617 5616 5614 5612 5610 5608 5606 5604 5601 5598 5595 5592 5589 5586 5583 5579 5575 5572 5568 5565 5561 5557 5553 5550 5545 5541 5536 5531 5527 5523 5520 5516 5513 5510 5507 5504 5501 5498 5496 5494 5491 5488 5487 5485 5484 5483 5483 5483 5483 5484
5640 5638 5637 5635 5634 5633 5632 5631 5629 5628 5627 5626 5625 5624 5623 5623 5622 5622 5621 5620 5620 5618 5617 5616 5614 5613 5612 5610 5608 5606 5604 5602 5599 5597 5594 5591 5588 5585 5582 5578 5575 5572 5568 5565 5561 5557 5554 5550 5546 5541 5537 5533 5529 5526 5523 5521 5518 5515 5511 5508 5504 5502 5500 5497 5495 5493 5491 5490 5488 5488 5487 5487 5487 5488
5635 5633 5632 5631 5630 5628 5627 5626 5625 5624 5623 5622 5621 5620 5619 5619 5619 5618 5617 5617 5616 5615 5614 5613 5611 5610 5609 5608 5606 5604 5602 5600 5597 5595 5593 5590 5587 5584 5581 5578 5575 5572 5568 5565 5561 5558 5554 5550 5546 5543 5539 5536 5534 5531 5529 5526 5523 5519 5514 5510 5508 5505 5503 5501 5499 5497 5495 5494 5493 5492 5491 5491 5491 5492
5630 5629 5627 5626 5625 5624 5622 5621 5620 5619 5618 5618 5616 5615 5615 5615 5615 5614 5614 5613 5612 5612 5611 5610 5609 5607 5606 5605 5603 5602 5599 5597 5595 5593 5591 5588 5586 5583 5580 5578 5575 5571 5568 5564 5561 5558 5555 5551 5547 5544 5542 5539 5536 5533 5530 5526 5523 5520 5517 5514 5511 5508 5506 5504 5502 5501 5499 5498 5497 5497 5496 5496 5495 5496
5625 5624 5622 5621 5620 5619 5618 5616 5615 5615 5614 5613 5612 5611 5611 5611 5611 5610 5610 5609 5609 5608 5607 5607 5606 5605 5604 5602 5600 5599 5597 5595 5593 5591 5589 5587 5584 5582 5579 5577 5574 5570 5567 5564 5561 5558 5555 5552 5549 5546 5543 5540 5537 5534 5531 5527 5524 5522 5519 5517 5514 5511 5509 5507 5505 5504 5502 5501 5501 5501 5501 5500 5500 5501
5620 5618 5617 5616 5615 5614 5613 5612 5611 5610 5609 5609 5608 5607 5606 5607 5606 5606 5606 5605 5605 5604 5604 5603 5603 5602 5601 5599 5598 5596 5594 5593 5591 5589 5587 5585 5582 5580 5578 5575 5572 5570 5567 5564 5561 5558 5555 5552 5549 5546 5543 5540 5537 5535 5532 5529 5526 5524 5521 5518 5516 5514 5512 5509 5507 5506 5505 5505 5504 5503 5503 5503 5503 5504
5614 5614 5612 5611 5610 5609 5608 5607 5606 5606 5605 5604 5603 5602 5602 5602 5602 5602 5602 5601 5601 5600 5600 5600 5599 5598 5598 5597 5595 5594 5592 5591 5589 5587 5585 5583 5580 5578 5576 5573 5571 5568 5566 5563 5561 5558 5555 5552 5549 5546 5543 5540 5537 5535 5532 5530 5527 5525 5523 5521 5519 5516 5514 5512 5510 5508 5507 5507 5506 5506 5505 5505 5506 5506